Date String (YYYY-MM-DD hh:mm:ss) UTC,Instrument flags,Ambient pressure (hPa),Sample flow (lpm),Bypass flow (lpm),Sample temperature (°C),Ambient temperature (°C),ASC tube jacket temperature (°C),LED temperature (°C),Box temperature (°C),Sample RH (%),Span deviation,Mass concentration (μg/m³),Mass concentration (μg/m³),Mass concentration (μg/m³)
DateTimeUTC,F1_M11,P_M11,Q1_M11,Q2_M11,T1_M11,T2_M11,T3_M11,T4_M11,T5_M11,U1_M11,ZSPAN_M11,X0_M11,X2_M11,X1_M11
2022-05-12 00:00:00,,0817.7,5.00,0.00,29.3,25.1,00.0,38.2,30.7,12.2,0000.0,0024.18,0005.11,0002.90
2022-05-12 00:01:00,,0817.7,4.99,0.00,29.2,25.5,00.0,38.2,30.8,12.2,0000.0,0023.83,0005.16,0002.90
2022-05-12 00:02:00,,0817.7,5.01,0.00,29.2,26.0,00.0,38.1,30.8,12.2,0000.0,0022.17,0005.17,0002.88
2022-05-12 00:03:00,,0817.8,5.00,0.00,29.2,26.5,00.0,38.1,30.8,12.2,0000.0,0021.67,0005.16,0002.84
2022-05-12 00:04:00,,0817.8,5.00,0.00,29.2,27.0,00.0,38.1,30.9,12.1,0000.0,0022.54,0005.19,0002.82
2022-05-12 00:05:00,,0817.8,5.00,0.00,29.2,27.4,00.0,38.1,31.0,12.0,0000.0,0021.83,0005.09,0002.79
2022-05-12 00:06:00,,0817.8,5.01,0.00,29.3,27.7,00.0,38.1,31.1,12.0,0000.0,0022.86,0005.02,0002.77
2022-05-12 00:07:00,,0817.8,5.00,0.00,29.3,28.0,00.0,38.1,31.2,12.3,0000.0,0021.47,0004.95,0002.74
2022-05-12 00:08:00,,0817.7,5.00,0.00,29.4,28.2,00.0,38.1,31.2,12.1,0000.0,0020.32,0004.93,0002.72
2022-05-12 00:09:00,,0817.7,5.01,0.00,29.4,28.4,00.0,38.1,31.3,11.8,0000.0,0021.23,0004.90,0002.71
2022-05-12 00:10:00,,0817.7,5.00,0.00,29.4,28.5,00.0,38.2,31.4,11.7,0000.0,0022.34,0004.95,0002.70
2022-05-12 00:11:00,,0817.7,5.00,0.00,29.5,28.6,00.0,38.2,31.4,11.4,0000.0,0022.18,0004.93,0002.67
2022-05-12 00:12:00,,0817.8,4.99,0.00,29.6,28.6,00.0,38.2,31.4,11.4,0000.0,0022.06,0004.88,0002.65
2022-05-12 00:13:00,,0817.7,5.00,0.00,29.5,26.7,00.0,38.3,31.0,11.5,0000.0,0023.17,0004.87,0002.62
2022-05-12 00:14:00,,0817.7,5.00,0.00,29.3,25.1,00.0,38.2,30.7,11.5,0000.0,0023.15,0004.86,0002.60
2022-05-12 00:15:00,,0817.7,4.99,0.00,29.2,25.3,00.0,38.2,30.7,11.1,0000.0,0022.48,0004.83,0002.59
2022-05-12 00:16:00,,0817.7,5.01,0.00,29.2,25.8,00.0,38.2,30.7,11.4,0000.0,0021.89,0004.89,0002.60
2022-05-12 00:17:00,,0817.6,5.01,0.00,29.2,26.3,00.0,38.1,30.8,11.7,0000.0,0020.48,0004.92,0002.60
2022-05-12 00:18:00,,0817.6,4.99,0.00,29.2,26.8,00.0,38.1,30.9,11.3,0000.0,0019.37,0004.89,0002.59
2022-05-12 00:19:00,,0817.6,5.00,0.00,29.2,27.2,00.0,38.1,31.0,11.1,0000.0,0019.78,0004.89,0002.59
2022-05-12 00:20:00,,0817.6,5.00,0.00,29.2,27.6,00.0,38.1,31.1,10.5,0000.0,0019.95,0004.88,0002.59
2022-05-12 00:21:00,,0817.6,5.00,0.00,29.3,27.8,00.0,38.1,31.1,10.5,0000.0,0019.93,0004.84,0002.59
2022-05-12 00:22:00,,0817.6,5.00,0.00,29.3,28.1,00.0,38.1,31.2,10.1,0000.0,0020.47,0004.86,0002.61
2022-05-12 00:23:00,,0817.6,5.00,0.00,29.4,28.3,00.0,38.1,31.3,09.8,0000.0,0020.00,0004.85,0002.61
2022-05-12 00:24:00,,0817.6,4.99,0.00,29.4,28.4,00.0,38.2,31.3,09.6,0000.0,0017.77,0004.76,0002.59
2022-05-12 00:25:00,,0817.6,5.00,0.00,29.5,28.5,00.0,38.2,31.4,09.2,0000.0,0017.67,0004.70,0002.59
2022-05-12 00:26:00,,0817.6,5.00,0.00,29.5,28.7,00.0,38.2,31.4,09.7,0000.0,0018.33,0004.70,0002.58
2022-05-12 00:27:00,,0817.5,5.00,0.00,29.6,28.5,00.0,38.3,31.4,09.8,0000.0,0018.59,0004.65,0002.57
2022-05-12 00:28:00,,0817.5,5.00,0.00,29.5,26.5,00.0,38.3,31.0,10.4,0000.0,0018.71,0004.63,0002.56
2022-05-12 00:29:00,,0817.6,5.00,0.00,29.3,25.0,00.0,38.2,30.7,10.1,0000.0,0020.00,0004.65,0002.58
2022-05-12 00:30:00,,0817.5,5.01,0.00,29.3,25.3,00.0,38.2,30.7,09.8,0000.0,0019.23,0004.58,0002.58
2022-05-12 00:31:00,,0817.5,4.99,0.00,29.2,25.8,00.0,38.2,30.7,10.0,0000.0,0019.28,0004.61,0002.57
2022-05-12 00:32:00,,0817.5,5.00,0.00,29.2,26.3,00.0,38.1,30.8,09.9,0000.0,0018.88,0004.63,0002.57
2022-05-12 00:33:00,,0817.5,5.00,0.00,29.2,26.8,00.0,38.1,30.9,10.0,0000.0,0018.49,0004.64,0002.56
2022-05-12 00:34:00,,0817.5,5.00,0.00,29.2,27.2,00.0,38.1,31.0,10.8,0000.0,0019.08,0004.64,0002.58
2022-05-12 00:35:00,,0817.4,5.00,0.00,29.2,27.6,00.0,38.1,31.1,10.6,0000.0,0019.93,0004.71,0002.61
2022-05-12 00:36:00,,0817.5,5.00,0.00,29.3,27.9,00.0,38.1,31.1,10.7,0000.0,0019.84,0004.69,0002.61
2022-05-12 00:37:00,,0817.5,5.00,0.00,29.3,28.1,00.0,38.1,31.2,11.0,0000.0,0019.03,0004.69,0002.63
2022-05-12 00:38:00,,0817.5,4.99,0.00,29.4,28.3,00.0,38.1,31.3,11.0,0000.0,0018.84,0004.74,0002.63
2022-05-12 00:39:00,,0817.5,5.01,0.00,29.4,28.4,00.0,38.2,31.3,10.9,0000.0,0020.23,0004.74,0002.63
2022-05-12 00:40:00,,0817.5,5.01,0.00,29.5,28.6,00.0,38.2,31.4,11.1,0000.0,0018.73,0004.67,0002.60
2022-05-12 00:41:00,,0817.6,5.00,0.00,29.5,28.7,00.0,38.2,31.4,11.6,0000.0,0018.36,0004.64,0002.58
2022-05-12 00:42:00,,0817.5,5.00,0.00,29.6,28.4,00.0,38.3,31.4,11.0,0000.0,0018.33,0004.62,0002.58
2022-05-12 00:43:00,,0817.6,4.99,0.00,29.5,26.4,00.0,38.3,30.9,10.9,0000.0,0017.27,0004.56,0002.57
2022-05-12 00:44:00,,0817.5,5.01,0.00,29.3,25.0,00.0,38.2,30.7,10.7,0000.0,0018.88,0004.55,0002.55
2022-05-12 00:45:00,,0817.5,5.00,0.00,29.2,25.4,00.0,38.2,30.7,11.7,0000.0,0018.67,0004.49,0002.53
2022-05-12 00:46:00,,0817.4,4.99,0.00,29.2,25.8,00.0,38.2,30.7,10.7,0000.0,0018.28,0004.42,0002.50
2022-05-12 00:47:00,,0817.5,5.00,0.00,29.1,26.3,00.0,38.1,30.8,10.5,0000.0,0019.72,0004.44,0002.48
2022-05-12 00:48:00,,0817.4,5.00,0.00,29.2,26.8,00.0,38.1,30.9,11.3,0000.0,0019.84,0004.45,0002.46
2022-05-12 00:49:00,,0817.5,4.99,0.00,29.2,27.2,00.0,38.1,31.0,09.9,0000.0,0021.15,0004.42,0002.44
2022-05-12 00:50:00,,0817.4,5.00,0.00,29.2,27.6,00.0,38.1,31.1,09.1,0000.0,0019.61,0004.43,0002.43
2022-05-12 00:51:00,,0817.4,5.00,0.00,29.3,27.8,00.0,38.1,31.1,09.2,0000.0,0019.55,0004.44,0002.42
2022-05-12 00:52:00,,0817.5,5.01,0.00,29.3,28.1,00.0,38.1,31.2,09.6,0000.0,0020.68,0004.49,0002.43
2022-05-12 00:53:00,,0817.5,5.00,0.00,29.4,28.3,00.0,38.2,31.3,09.8,0000.0,0021.24,0004.51,0002.43
2022-05-12 00:54:00,,0817.4,5.00,0.00,29.4,28.4,00.0,38.2,31.4,09.4,0000.0,0022.55,0004.49,0002.42
2022-05-12 00:55:00,,0817.4,5.00,0.00,29.5,28.6,00.0,38.2,31.4,09.6,0000.0,0021.41,0004.45,0002.42
2022-05-12 00:56:00,,0817.4,5.00,0.00,29.5,28.7,00.0,38.2,31.5,09.4,0000.0,0020.70,0004.50,0002.43
2022-05-12 00:57:00,,0817.4,5.00,0.00,29.6,28.8,00.0,38.3,31.5,09.3,0000.0,0020.05,0004.50,0002.42
2022-05-12 00:58:00,,0817.5,4.99,0.00,29.6,27.6,00.0,38.3,31.2,09.3,0000.0,0018.63,0004.47,0002.41
2022-05-12 00:59:00,,0817.5,5.01,0.00,29.4,25.4,00.0,38.3,30.8,10.6,0000.0,0018.92,0004.42,0002.39
